Torna al catalogo

STARLINK-38214

AttivoComunicazioniSSO
NORAD 100103·PAYLOAD·🇺🇸 United States

Lanciato Jul 21, 2026 da Vandenberg Space Force Base

Loading…

Prossimi Passaggi (prossime 24 ore)

TLE

AggiornatoSource: Space-Track

Epoca: Sep 14, 2026, 07:11 UTC

1 A0103U 26166C   26257.29938385 -.00000380  00000-0 -16815-5 0  9993
2 A0103  97.2824 275.2844 0000892  98.3468 261.7898 15.75173075  8625

Traccia STARLINK-38214 in tempo reale con AllMySat

Download on the App Store